START_TIME,STEP,MOV.,M34,t_acc.,L5,t_acc.,L18,t_acc.,L14,t_acc.
1979-07-12 18:00:25.070 ,0,1,2.,12.0,0.,12.0,0.,12.0,0.,12.0
1979-07-12 18:00:37.070 ,0,1,2.,12.0,0.,12.0,0.,12.0,1.,12.0
1979-07-12 18:00:49.070 ,3,1,1.,12.0,0.,12.0,0.,12.0,0.,12.0
1979-07-12 18:01:01.070 ,3,1,3.,12.0,0.,12.0,0.,12.0,0.,12.0
1979-07-12 18:01:13.070 ,7,1,4.,12.0,0.,12.0,0.,12.0,0.,12.0
1979-07-12 18:01:25.070 ,7,1,3.,12.0,0.,12.0,0.,12.0,0.,12.0
1979-07-12 18:01:37.070 ,4,1,1.,12.0,0.,12.0,0.,12.0,0.,12.0
1979-07-12 18:01:49.070 ,4,1,5.,12.0,0.,12.0,0.,12.0,1.,12.0
1979-07-12 18:02:01.070 ,0,1,3.,12.0,0.,12.0,0.,12.0,0.,12.0
1979-07-12 18:02:13.070 ,0,1,5.,12.0,0.,12.0,0.,12.0,0.,12.0
1979-07-12 18:02:25.070 ,3,1,7.,12.0,0.,12.0,0.,12.0,1.,12.0
1979-07-12 18:02:37.070 ,3,1,2.,12.0,0.,12.0,0.,12.0,0.,12.0
1979-07-12 18:02:49.070 ,7,1,3.,12.0,0.,12.0,0.,12.0,0.,12.0
1979-07-12 18:03:01.070 ,7,1,5.,12.0,0.,12.0,0.,12.0,1.,12.0
1979-07-12 18:03:13.070 ,4,1,1.,12.0,0.,12.0,0.,12.0,0.,12.0
1979-07-12 18:03:25.070 ,4,1,1.,12.0,0.,12.0,0.,12.0,1.,12.0
1979-07-12 18:03:37.070 ,0,1,2.,12.0,0.,12.0,0.,12.0,0.,12.0
1979-07-12 18:03:49.070 ,0,1,3.,12.0,0.,12.0,0.,12.0,0.,12.0
1979-07-12 18:04:01.070 ,3,1,1.,12.0,0.,12.0,0.,12.0,0.,12.0
1979-07-12 18:04:13.070 ,3,1,3.,12.0,0.,12.0,0.,12.0,0.,12.0
1979-07-12 18:04:25.070 ,7,1,5.,12.0,0.,12.0,0.,12.0,1.,12.0
1979-07-12 18:04:37.070 ,7,1,2.,12.0,0.,12.0,0.,12.0,0.,12.0
1979-07-12 18:04:49.070 ,4,1,1.,12.0,0.,12.0,0.,12.0,0.,12.0
1979-07-12 18:05:01.070 ,4,1,1.,12.0,0.,12.0,0.,12.0,0.,12.0
1979-07-12 18:05:13.070 ,0,1,8.,12.0,0.,12.0,0.,12.0,0.,12.0
1979-07-12 18:05:25.070 ,0,1,1.,12.0,0.,12.0,0.,12.0,0.,12.0
1979-07-12 18:05:37.070 ,0,0,1.,12.0,0.,12.0,0.,12.0,0.,12.0
1979-07-12 18:05:49.070 ,0,0,2.,12.0,0.,12.0,0.,12.0,0.,12.0
1979-07-12 18:06:01.070 ,0,0,5.,12.0,0.,12.0,0.,12.0,0.,12.0
1979-07-12 18:06:13.070 ,0,0,2.,12.0,0.,12.0,0.,12.0,0.,12.0
1979-07-12 18:06:25.070 ,5,1,1.,12.0,0.,12.0,0.,12.0,0.,12.0
1979-07-12 18:06:37.070 ,5,1,2.,12.0,0.,12.0,0.,12.0,1.,12.0
1979-07-12 18:06:49.070 ,5,0,2.,12.0,0.,12.0,0.,12.0,0.,12.0
1979-07-12 18:07:01.070 ,5,0,3.,12.0,0.,12.0,0.,12.0,0.,12.0
1979-07-12 18:07:13.070 ,4,1,2.,12.0,0.,12.0,0.,12.0,0.,12.0
1979-07-12 18:07:25.070 ,4,1,2.,12.0,0.,12.0,0.,12.0,1.,12.0
1979-07-12 18:07:37.070 ,4,0,5.,12.0,0.,12.0,0.,12.0,0.,12.0
1979-07-12 18:07:49.070 ,4,0,3.,12.0,0.,12.0,0.,12.0,0.,12.0
1979-07-12 18:08:01.070 ,3,1,4.,12.0,0.,12.0,0.,12.0,0.,12.0
1979-07-12 18:08:13.070 ,3,1,1.,12.0,0.,12.0,0.,12.0,0.,12.0
1979-07-12 18:08:25.070 ,3,0,4.,12.0,0.,12.0,0.,12.0,0.,12.0
1979-07-12 18:08:37.070 ,3,0,1.,12.0,0.,12.0,0.,12.0,0.,12.0
1979-07-12 18:08:49.070 ,2,1,4.,12.0,0.,12.0,0.,12.0,0.,12.0
1979-07-12 18:09:01.070 ,2,1,1.,12.0,0.,12.0,0.,12.0,1.,12.0
1979-07-12 18:09:13.070 ,2,0,0.,12.0,0.,12.0,0.,12.0,0.,12.0
1979-07-12 18:09:25.070 ,2,0,2.,12.0,0.,12.0,0.,12.0,0.,12.0
1979-07-12 18:09:37.070 ,1,1,1.,12.0,0.,12.0,0.,12.0,0.,12.0
1979-07-12 18:09:49.070 ,1,1,0.,12.0,0.,12.0,0.,12.0,0.,12.0
1979-07-12 18:10:01.070 ,1,0,0.,12.0,0.,12.0,0.,12.0,1.,12.0
1979-07-12 18:10:13.070 ,1,0,2.,12.0,0.,12.0,0.,12.0,0.,12.0
1979-07-12 18:10:25.070 ,0,1,1.,12.0,0.,12.0,0.,12.0,0.,12.0
1979-07-12 18:10:37.070 ,0,1,3.,12.0,0.,12.0,0.,12.0,0.,12.0
1979-07-12 18:10:49.070 ,0,0,2.,12.0,0.,12.0,0.,12.0,0.,12.0
1979-07-12 18:11:01.070 ,0,0,0.,12.0,0.,12.0,0.,12.0,0.,12.0
1979-07-12 18:11:13.070 ,0,1,0.,12.0,0.,12.0,0.,12.0,0.,12.0
1979-07-12 18:11:25.070 ,0,1,2.,12.0,0.,12.0,0.,12.0,0.,12.0
1979-07-12 18:11:37.070 ,0,0,1.,12.0,0.,12.0,0.,12.0,0.,12.0
1979-07-12 18:11:49.070 ,0,0,1.,12.0,0.,12.0,0.,12.0,0.,12.0
1979-07-12 18:12:01.070 ,1,1,1.,12.0,0.,12.0,0.,12.0,0.,12.0
1979-07-12 18:12:13.070 ,1,1,3.,12.0,0.,12.0,0.,12.0,0.,12.0
1979-07-12 18:12:25.070 ,1,0,3.,12.0,0.,12.0,0.,12.0,0.,12.0
1979-07-12 18:12:37.070 ,1,0,0.,12.0,0.,12.0,0.,12.0,0.,12.0
1979-07-12 18:12:49.070 ,2,1,3.,12.0,0.,12.0,0.,12.0,1.,12.0
1979-07-12 18:13:01.070 ,2,1,1.,12.0,0.,12.0,0.,12.0,0.,12.0
1979-07-12 18:13:13.070 ,2,0,2.,12.0,0.,12.0,0.,12.0,0.,12.0
1979-07-12 18:13:25.070 ,2,0,2.,12.0,0.,12.0,0.,12.0,0.,12.0
1979-07-12 18:13:37.070 ,3,1,2.,12.0,0.,12.0,0.,12.0,0.,12.0
1979-07-12 18:13:49.070 ,3,1,2.,12.0,0.,12.0,0.,12.0,0.,12.0
1979-07-12 18:14:01.070 ,3,0,7.,12.0,0.,12.0,0.,12.0,0.,12.0
1979-07-12 18:14:13.070 ,3,0,1.,12.0,0.,12.0,0.,12.0,0.,12.0
1979-07-12 18:14:25.070 ,4,1,3.,12.0,0.,12.0,0.,12.0,0.,12.0
1979-07-12 18:14:37.070 ,4,1,3.,12.0,0.,12.0,0.,12.0,0.,12.0
1979-07-12 18:14:49.070 ,4,0,1.,12.0,0.,12.0,0.,12.0,0.,12.0
1979-07-12 18:15:01.070 ,4,0,2.,12.0,0.,12.0,0.,12.0,0.,12.0
1979-07-12 18:15:13.070 ,5,1,5.,12.0,0.,12.0,0.,12.0,0.,12.0
1979-07-12 18:15:25.070 ,5,1,1.,12.0,0.,12.0,0.,12.0,0.,12.0
1979-07-12 18:15:37.070 ,5,0,4.,12.0,0.,12.0,0.,12.0,0.,12.0
1979-07-12 18:15:49.070 ,5,0,5.,12.0,0.,12.0,0.,12.0,1.,12.0
1979-07-12 18:16:01.070 ,6,1,2.,12.0,0.,12.0,0.,12.0,1.,12.0
1979-07-12 18:16:13.070 ,6,1,3.,12.0,0.,12.0,0.,12.0,0.,12.0
1979-07-12 18:16:25.070 ,6,0,4.,12.0,0.,12.0,0.,12.0,0.,12.0
1979-07-12 18:16:37.070 ,6,0,3.,12.0,0.,12.0,0.,12.0,0.,12.0
1979-07-12 18:16:49.070 ,7,1,0.,12.0,0.,12.0,0.,12.0,0.,12.0
1979-07-12 18:17:01.070 ,7,1,0.,12.0,0.,12.0,0.,12.0,0.,12.0
1979-07-12 18:17:13.070 ,7,0,,0,,0,,0,,0
1979-07-12 18:17:25.070 ,7,0,0.,12.0,0.,12.0,0.,12.0,0.,12.0
1979-07-12 18:17:37.070 ,7,1,0.,12.0,0.,12.0,0.,12.0,0.,12.0
1979-07-12 18:17:49.070 ,7,1,0.,12.0,0.,12.0,0.,12.0,0.,12.0
1979-07-12 18:18:01.070 ,7,0,0.,12.0,0.,12.0,0.,12.0,0.,12.0
1979-07-12 18:18:13.070 ,7,0,0.,12.0,0.,12.0,0.,12.0,0.,12.0
1979-07-12 18:18:25.070 ,6,1,0.,12.0,0.,12.0,0.,12.0,0.,12.0
1979-07-12 18:18:37.070 ,6,1,2.,12.0,0.,12.0,0.,12.0,0.,12.0
1979-07-12 18:18:49.070 ,6,0,1.,12.0,0.,12.0,0.,12.0,0.,12.0
1979-07-12 18:19:01.070 ,6,0,1.,12.0,0.,12.0,0.,12.0,0.,12.0
1979-07-12 18:20:01.070 ,0,0,2.,12.0,0.,12.0,0.,12.0,0.,12.0
1979-07-12 18:20:13.070 ,0,0,3.,12.0,0.,12.0,0.,12.0,0.,12.0
1979-07-12 18:20:25.070 ,0,0,4.,12.0,0.,12.0,0.,12.0,0.,12.0
1979-07-12 18:20:37.070 ,0,0,0.,12.0,0.,12.0,0.,12.0,0.,12.0
1979-07-12 18:20:49.070 ,3,1,3.,12.0,0.,12.0,0.,12.0,0.,12.0
1979-07-12 18:21:01.070 ,3,1,3.,12.0,0.,12.0,0.,12.0,0.,12.0
1979-07-12 18:21:13.070 ,3,0,2.,12.0,0.,12.0,0.,12.0,0.,12.0
1979-07-12 18:21:25.070 ,3,0,5.,12.0,0.,12.0,0.,12.0,0.,12.0
1979-07-12 18:21:37.070 ,2,1,1.,12.0,0.,12.0,0.,12.0,1.,12.0
1979-07-12 18:21:49.070 ,2,1,1.,12.0,0.,12.0,0.,12.0,0.,12.0
1979-07-12 18:22:01.070 ,2,0,1.,12.0,0.,12.0,0.,12.0,0.,12.0
1979-07-12 18:22:13.070 ,2,0,0.,12.0,0.,12.0,0.,12.0,0.,12.0
1979-07-12 18:22:25.070 ,1,1,1.,12.0,0.,12.0,0.,12.0,0.,12.0
1979-07-12 18:22:37.070 ,1,1,1.,12.0,0.,12.0,0.,12.0,0.,12.0
1979-07-12 18:22:49.070 ,1,0,3.,12.0,0.,12.0,0.,12.0,0.,12.0
1979-07-12 18:23:01.070 ,1,0,0.,12.0,0.,12.0,0.,12.0,0.,12.0
1979-07-12 18:23:13.070 ,0,1,1.,12.0,0.,12.0,0.,12.0,0.,12.0
1979-07-12 18:23:25.070 ,0,1,0.,12.0,0.,12.0,0.,12.0,2.,12.0
1979-07-12 18:23:37.070 ,0,0,1.,12.0,0.,12.0,0.,12.0,0.,12.0
1979-07-12 18:23:49.070 ,0,0,2.,12.0,0.,12.0,0.,12.0,0.,12.0
1979-07-12 18:24:01.070 ,0,1,1.,12.0,0.,12.0,0.,12.0,0.,12.0
1979-07-12 18:24:13.070 ,0,1,0.,12.0,0.,12.0,0.,12.0,0.,12.0
1979-07-12 18:24:25.070 ,0,0,2.,12.0,0.,12.0,0.,12.0,0.,12.0
1979-07-12 18:24:37.070 ,0,0,3.,12.0,0.,12.0,0.,12.0,0.,12.0
1979-07-12 18:24:49.070 ,1,1,0.,12.0,0.,12.0,0.,12.0,0.,12.0
1979-07-12 18:25:01.070 ,1,1,1.,12.0,0.,12.0,0.,12.0,0.,12.0
1979-07-12 18:25:13.070 ,1,0,2.,12.0,0.,12.0,0.,12.0,0.,12.0
1979-07-12 18:25:25.070 ,1,0,3.,12.0,0.,12.0,0.,12.0,0.,12.0
1979-07-12 18:25:37.070 ,2,1,2.,12.0,0.,12.0,0.,12.0,0.,12.0
1979-07-12 18:25:49.070 ,2,1,3.,12.0,0.,12.0,0.,12.0,1.,12.0
1979-07-12 18:26:01.070 ,2,0,0.,12.0,0.,12.0,0.,12.0,0.,12.0
1979-07-12 18:26:13.070 ,2,0,1.,12.0,0.,12.0,0.,12.0,1.,12.0
1979-07-12 18:26:25.070 ,3,1,2.,12.0,0.,12.0,0.,12.0,0.,12.0
1979-07-12 18:26:37.070 ,3,1,2.,12.0,0.,12.0,0.,12.0,1.,12.0
1979-07-12 18:26:49.070 ,3,0,2.,12.0,0.,12.0,0.,12.0,0.,12.0
1979-07-12 18:27:01.070 ,3,0,0.,12.0,0.,12.0,0.,12.0,1.,12.0
1979-07-12 18:27:13.070 ,4,1,6.,12.0,0.,12.0,0.,12.0,0.,12.0
1979-07-12 18:27:25.070 ,4,1,3.,12.0,0.,12.0,0.,12.0,0.,12.0
1979-07-12 18:27:37.070 ,4,0,4.,12.0,0.,12.0,0.,12.0,0.,12.0
1979-07-12 18:27:49.070 ,4,0,5.,12.0,0.,12.0,0.,12.0,0.,12.0
1979-07-12 18:28:01.070 ,5,1,2.,12.0,0.,12.0,0.,12.0,0.,12.0
1979-07-12 18:28:13.070 ,5,1,3.,12.0,0.,12.0,0.,12.0,0.,12.0
1979-07-12 18:28:25.070 ,5,0,3.,12.0,0.,12.0,0.,12.0,0.,12.0
1979-07-12 18:28:37.070 ,5,0,1.,12.0,0.,12.0,0.,12.0,0.,12.0
1979-07-12 18:28:49.070 ,6,1,1.,12.0,0.,12.0,0.,12.0,0.,12.0
1979-07-12 18:29:01.070 ,6,1,3.,12.0,0.,12.0,0.,12.0,0.,12.0
1979-07-12 18:29:13.070 ,6,0,4.,12.0,0.,12.0,0.,12.0,0.,12.0
1979-07-12 18:29:25.070 ,6,0,1.,12.0,0.,12.0,0.,12.0,1.,12.0
1979-07-12 18:29:37.070 ,7,1,2.,12.0,0.,12.0,0.,12.0,0.,12.0
1979-07-12 18:29:49.070 ,7,1,1.,12.0,0.,12.0,0.,12.0,0.,12.0
1979-07-12 18:30:01.070 ,7,0,0.,12.0,0.,12.0,0.,12.0,1.,12.0
1979-07-12 18:30:13.070 ,7,0,0.,12.0,0.,12.0,0.,12.0,0.,12.0
1979-07-12 18:30:25.070 ,7,1,0.,12.0,0.,12.0,0.,12.0,0.,12.0
1979-07-12 18:30:37.070 ,7,1,0.,12.0,0.,12.0,0.,12.0,0.,12.0
1979-07-12 18:30:49.070 ,7,0,0.,12.0,0.,12.0,0.,12.0,0.,12.0
1979-07-12 18:31:01.070 ,7,0,0.,12.0,0.,12.0,0.,12.0,0.,12.0
1979-07-12 18:31:13.070 ,6,1,0.,12.0,0.,12.0,0.,12.0,0.,12.0
1979-07-12 18:31:25.070 ,6,1,1.,12.0,0.,12.0,0.,12.0,1.,12.0
1979-07-12 18:31:37.070 ,6,0,2.,12.0,0.,12.0,0.,12.0,0.,12.0
1979-07-12 18:31:49.070 ,6,0,2.,12.0,0.,12.0,0.,12.0,0.,12.0
1979-07-12 18:32:01.070 ,5,1,1.,12.0,0.,12.0,0.,12.0,0.,12.0
1979-07-12 18:32:13.070 ,5,1,0.,12.0,0.,12.0,0.,12.0,0.,12.0
1979-07-12 18:32:25.070 ,5,0,3.,12.0,0.,12.0,0.,12.0,0.,12.0
1979-07-12 18:32:37.070 ,5,0,1.,12.0,0.,12.0,0.,12.0,1.,12.0
1979-07-12 18:32:49.070 ,4,1,1.,12.0,0.,12.0,0.,12.0,0.,12.0
1979-07-12 18:33:01.070 ,4,1,1.,12.0,0.,12.0,0.,12.0,0.,12.0
1979-07-12 18:33:13.070 ,4,0,1.,12.0,0.,12.0,0.,12.0,0.,12.0
1979-07-12 18:33:25.070 ,4,0,2.,12.0,0.,12.0,0.,12.0,1.,12.0
1979-07-12 18:33:37.070 ,3,1,4.,12.0,0.,12.0,0.,12.0,1.,12.0
1979-07-12 18:33:49.070 ,3,1,0.,12.0,0.,12.0,0.,12.0,0.,12.0
1979-07-12 18:34:01.070 ,3,0,0.,12.0,0.,12.0,0.,12.0,0.,12.0
1979-07-12 18:34:13.070 ,3,0,1.,12.0,0.,12.0,0.,12.0,0.,12.0
1979-07-12 18:34:25.070 ,2,1,1.,12.0,0.,12.0,0.,12.0,0.,12.0
1979-07-12 18:34:37.070 ,2,1,2.,12.0,0.,12.0,0.,12.0,1.,12.0
1979-07-12 18:34:49.070 ,2,0,2.,12.0,0.,12.0,0.,12.0,0.,12.0
1979-07-12 18:35:01.070 ,2,0,0.,12.0,0.,12.0,0.,12.0,0.,12.0
1979-07-12 18:35:13.070 ,1,1,0.,12.0,0.,12.0,0.,12.0,0.,12.0
1979-07-12 18:35:25.070 ,1,1,1.,12.0,0.,12.0,0.,12.0,0.,12.0
1979-07-12 18:35:37.070 ,1,0,0.,12.0,0.,12.0,0.,12.0,0.,12.0
1979-07-12 18:35:49.070 ,1,0,0.,12.0,0.,12.0,0.,12.0,0.,12.0
1979-07-12 18:36:01.070 ,0,1,0.,12.0,0.,12.0,0.,12.0,0.,12.0
1979-07-12 18:36:13.070 ,0,1,0.,12.0,0.,12.0,0.,12.0,0.,12.0
1979-07-12 18:36:25.070 ,0,0,0.,12.0,0.,12.0,0.,12.0,0.,12.0
1979-07-12 18:36:37.070 ,0,0,0.,12.0,0.,12.0,0.,12.0,0.,12.0
1979-07-12 18:36:49.070 ,0,1,0.,12.0,0.,12.0,0.,12.0,1.,12.0
1979-07-12 18:37:01.070 ,0,1,1.,12.0,0.,12.0,0.,12.0,0.,12.0
1979-07-12 18:37:13.070 ,0,0,0.,12.0,0.,12.0,0.,12.0,0.,12.0
1979-07-12 18:37:25.070 ,0,0,1.,12.0,0.,12.0,0.,12.0,0.,12.0
1979-07-12 18:38:25.070 ,0,0,0.,12.0,0.,12.0,0.,12.0,0.,12.0
1979-07-12 18:38:37.070 ,0,0,4.,12.0,0.,12.0,0.,12.0,0.,12.0
1979-07-12 18:38:49.070 ,0,0,0.,12.0,0.,12.0,0.,12.0,0.,12.0
1979-07-12 18:39:01.070 ,0,0,0.,12.0,0.,12.0,0.,12.0,0.,12.0
1979-07-12 18:39:13.070 ,3,1,3.,12.0,0.,12.0,0.,12.0,0.,12.0
1979-07-12 18:39:25.070 ,3,1,1.,12.0,0.,12.0,0.,12.0,0.,12.0
1979-07-12 18:39:37.070 ,3,0,4.,12.0,0.,12.0,0.,12.0,0.,12.0
1979-07-12 18:39:49.070 ,3,0,2.,12.0,0.,12.0,0.,12.0,0.,12.0
1979-07-12 18:40:01.070 ,4,1,0.,12.0,0.,12.0,0.,12.0,0.,12.0
1979-07-12 18:40:13.070 ,4,1,2.,12.0,0.,12.0,0.,12.0,0.,12.0
1979-07-12 18:40:25.070 ,4,0,1.,12.0,0.,12.0,0.,12.0,0.,12.0
1979-07-12 18:40:37.070 ,4,0,2.,12.0,0.,12.0,0.,12.0,0.,12.0
1979-07-12 18:40:49.070 ,5,1,0.,12.0,0.,12.0,0.,12.0,0.,12.0
1979-07-12 18:41:01.070 ,5,1,0.,12.0,0.,12.0,0.,12.0,0.,12.0
1979-07-12 18:41:13.070 ,5,0,0.,12.0,0.,12.0,0.,12.0,0.,12.0
1979-07-12 18:41:25.070 ,5,0,0.,12.0,0.,12.0,0.,12.0,0.,12.0
1979-07-12 18:41:37.070 ,6,1,2.,12.0,0.,12.0,0.,12.0,1.,12.0
1979-07-12 18:41:49.070 ,6,1,0.,12.0,0.,12.0,0.,12.0,0.,12.0
1979-07-12 18:42:01.070 ,6,0,0.,12.0,0.,12.0,0.,12.0,0.,12.0
1979-07-12 18:42:13.070 ,6,0,2.,12.0,0.,12.0,0.,12.0,0.,12.0
1979-07-12 18:42:25.070 ,7,0,2.,12.0,0.,12.0,0.,12.0,0.,12.0
1979-07-12 18:42:37.070 ,7,0,1.,12.0,0.,12.0,0.,12.0,0.,12.0
1979-07-12 18:42:49.070 ,7,0,0.,12.0,0.,12.0,0.,12.0,1.,12.0
1979-07-12 18:43:01.070 ,7,0,0.,12.0,0.,12.0,0.,12.0,0.,12.0
1979-07-12 18:43:13.070 ,4,1,0.,12.0,0.,12.0,0.,12.0,0.,12.0
1979-07-12 18:43:25.070 ,4,1,0.,12.0,0.,12.0,0.,12.0,0.,12.0
1979-07-12 18:43:37.070 ,0,1,2.,12.0,0.,12.0,0.,12.0,1.,12.0
1979-07-12 18:43:49.070 ,0,1,1.,12.0,0.,12.0,0.,12.0,0.,12.0
1979-07-12 18:44:01.070 ,3,1,0.,12.0,0.,12.0,0.,12.0,0.,12.0
1979-07-12 18:44:13.070 ,3,1,0.,12.0,0.,12.0,0.,12.0,0.,12.0
1979-07-12 18:44:25.070 ,7,1,0.,12.0,0.,12.0,0.,12.0,0.,12.0
1979-07-12 18:44:37.070 ,7,1,2.,12.0,0.,12.0,0.,12.0,0.,12.0
1979-07-12 18:44:49.070 ,4,1,1.,12.0,0.,12.0,0.,12.0,0.,12.0
1979-07-12 18:45:01.070 ,4,1,0.,12.0,0.,12.0,0.,12.0,0.,12.0
1979-07-12 18:45:13.070 ,0,1,2.,12.0,0.,12.0,0.,12.0,0.,12.0
1979-07-12 18:45:25.070 ,0,1,0.,12.0,0.,12.0,0.,12.0,0.,12.0
1979-07-12 18:45:37.070 ,3,1,0.,12.0,0.,12.0,0.,12.0,0.,12.0
1979-07-12 18:45:49.070 ,3,1,0.,12.0,0.,12.0,0.,12.0,0.,12.0
1979-07-12 18:46:01.070 ,7,1,0.,12.0,0.,12.0,0.,12.0,0.,12.0
1979-07-12 18:46:13.070 ,7,1,1.,12.0,0.,12.0,0.,12.0,0.,12.0
1979-07-12 18:46:25.070 ,4,1,1.,12.0,0.,12.0,0.,12.0,0.,12.0
1979-07-12 18:46:37.070 ,4,1,2.,12.0,0.,12.0,0.,12.0,0.,12.0
1979-07-12 18:46:49.070 ,0,1,0.,12.0,0.,12.0,0.,12.0,0.,12.0
1979-07-12 18:47:01.070 ,0,1,0.,12.0,0.,12.0,0.,12.0,0.,12.0
1979-07-12 18:47:13.070 ,3,1,0.,12.0,0.,12.0,0.,12.0,0.,12.0
1979-07-12 18:47:25.070 ,3,1,0.,12.0,0.,12.0,0.,12.0,1.,12.0
1979-07-12 18:47:37.070 ,7,1,0.,12.0,0.,12.0,0.,12.0,0.,12.0
1979-07-12 18:47:49.070 ,7,1,0.,12.0,0.,12.0,0.,12.0,0.,12.0
1979-07-12 18:48:01.070 ,4,1,1.,12.0,0.,12.0,0.,12.0,0.,12.0
1979-07-12 18:48:13.070 ,4,1,2.,12.0,0.,12.0,0.,12.0,0.,12.0
1979-07-12 18:48:25.070 ,0,1,0.,12.0,0.,12.0,0.,12.0,0.,12.0
1979-07-12 18:48:37.070 ,0,1,2.,12.0,0.,12.0,0.,12.0,0.,12.0
1979-07-12 18:48:49.070 ,3,1,0.,12.0,0.,12.0,0.,12.0,0.,12.0
1979-07-12 18:49:01.070 ,3,1,3.,12.0,0.,12.0,0.,12.0,0.,12.0
1979-07-12 18:49:13.070 ,7,1,2.,12.0,0.,12.0,0.,12.0,1.,12.0
1979-07-12 18:49:25.070 ,7,1,3.,12.0,0.,12.0,0.,12.0,0.,12.0
1979-07-12 18:49:37.070 ,4,1,0.,12.0,0.,12.0,0.,12.0,0.,12.0
1979-07-12 18:49:49.070 ,4,1,0.,12.0,0.,12.0,0.,12.0,0.,12.0
1979-07-12 18:50:01.070 ,0,1,2.,12.0,0.,12.0,0.,12.0,0.,12.0
1979-07-12 18:50:13.070 ,0,1,1.,12.0,0.,12.0,0.,12.0,0.,12.0
1979-07-12 18:50:25.070 ,3,1,0.,12.0,0.,12.0,0.,12.0,0.,12.0
1979-07-12 18:50:37.070 ,3,1,1.,12.0,0.,12.0,0.,12.0,0.,12.0
1979-07-12 18:50:49.070 ,7,1,1.,12.0,0.,12.0,0.,12.0,1.,12.0
1979-07-12 18:51:01.070 ,7,1,1.,12.0,0.,12.0,0.,12.0,1.,12.0
1979-07-12 18:51:13.070 ,4,1,0.,12.0,0.,12.0,0.,12.0,0.,12.0
1979-07-12 18:51:25.070 ,4,1,0.,12.0,0.,12.0,0.,12.0,0.,12.0
1979-07-12 18:51:37.070 ,0,1,0.,12.0,0.,12.0,0.,12.0,0.,12.0
1979-07-12 18:51:49.070 ,0,1,2.,12.0,0.,12.0,0.,12.0,0.,12.0
1979-07-12 18:52:01.070 ,3,1,0.,12.0,0.,12.0,0.,12.0,0.,12.0
1979-07-12 18:52:13.070 ,3,1,1.,12.0,0.,12.0,0.,12.0,0.,12.0
1979-07-12 18:52:25.070 ,7,1,0.,12.0,0.,12.0,0.,12.0,0.,12.0
1979-07-12 18:52:37.070 ,7,1,0.,12.0,0.,12.0,0.,12.0,0.,12.0
1979-07-12 18:52:49.070 ,4,1,0.,12.0,0.,12.0,0.,12.0,0.,12.0
1979-07-12 18:53:01.070 ,4,1,0.,12.0,0.,12.0,0.,12.0,0.,12.0
1979-07-12 18:53:13.070 ,0,1,0.,12.0,0.,12.0,0.,12.0,1.,12.0
1979-07-12 18:53:25.070 ,0,1,0.,12.0,0.,12.0,0.,12.0,0.,12.0
1979-07-12 18:53:37.070 ,0,0,0.,12.0,0.,12.0,0.,12.0,0.,12.0
1979-07-12 18:53:49.070 ,0,0,1.,12.0,0.,12.0,0.,12.0,0.,12.0
1979-07-12 18:54:01.070 ,0,0,2.,12.0,0.,12.0,0.,12.0,0.,12.0
1979-07-12 18:54:13.070 ,0,0,0.,12.0,0.,12.0,0.,12.0,0.,12.0
1979-07-12 18:54:25.070 ,5,1,0.,12.0,0.,12.0,0.,12.0,0.,12.0
1979-07-12 18:54:37.070 ,5,1,0.,12.0,0.,12.0,0.,12.0,0.,12.0
1979-07-12 18:54:49.070 ,5,0,3.,12.0,0.,12.0,0.,12.0,0.,12.0
1979-07-12 18:55:01.070 ,5,0,1.,12.0,0.,12.0,0.,12.0,0.,12.0
1979-07-12 18:55:13.070 ,4,1,3.,12.0,0.,12.0,0.,12.0,0.,12.0
1979-07-12 18:55:25.070 ,4,1,1.,12.0,0.,12.0,0.,12.0,1.,12.0
1979-07-12 18:55:37.070 ,4,0,0.,12.0,0.,12.0,0.,12.0,0.,12.0
1979-07-12 18:55:49.070 ,4,0,3.,12.0,0.,12.0,0.,12.0,0.,12.0
1979-07-12 18:56:01.070 ,3,1,1.,12.0,0.,12.0,0.,12.0,0.,12.0
1979-07-12 18:56:13.070 ,3,1,2.,12.0,0.,12.0,0.,12.0,1.,12.0
1979-07-12 18:56:25.070 ,3,0,0.,12.0,0.,12.0,0.,12.0,0.,12.0
1979-07-12 18:56:37.070 ,3,0,0.,12.0,0.,12.0,0.,12.0,1.,12.0
1979-07-12 18:56:49.070 ,2,1,1.,12.0,0.,12.0,0.,12.0,0.,12.0
1979-07-12 18:57:01.070 ,2,1,1.,12.0,0.,12.0,0.,12.0,0.,12.0
1979-07-12 18:57:13.070 ,2,0,0.,12.0,0.,12.0,0.,12.0,0.,12.0
1979-07-12 18:57:25.070 ,2,0,1.,12.0,0.,12.0,0.,12.0,0.,12.0
1979-07-12 18:57:37.070 ,1,1,0.,12.0,0.,12.0,0.,12.0,0.,12.0
1979-07-12 18:57:49.070 ,1,1,0.,12.0,0.,12.0,0.,12.0,0.,12.0
1979-07-12 18:58:01.070 ,1,0,0.,12.0,0.,12.0,0.,12.0,2.,12.0
1979-07-12 18:58:13.070 ,1,0,0.,12.0,0.,12.0,0.,12.0,0.,12.0
1979-07-12 18:58:25.070 ,0,1,0.,12.0,0.,12.0,0.,12.0,1.,12.0
1979-07-12 18:58:37.070 ,0,1,0.,12.0,0.,12.0,0.,12.0,0.,12.0
1979-07-12 18:58:49.070 ,0,0,1.,12.0,0.,12.0,0.,12.0,0.,12.0
1979-07-12 18:59:01.070 ,0,0,0.,12.0,0.,12.0,0.,12.0,0.,12.0
1979-07-12 18:59:13.070 ,0,1,3.,12.0,0.,12.0,0.,12.0,0.,12.0
1979-07-12 18:59:25.070 ,0,1,0.,12.0,0.,12.0,0.,12.0,0.,12.0
1979-07-12 18:59:37.070 ,0,0,0.,12.0,0.,12.0,0.,12.0,0.,12.0
1979-07-12 18:59:49.070 ,0,0,0.,12.0,0.,12.0,0.,12.0,0.,12.0
1979-07-12 19:00:01.070 ,1,1,0.,12.0,0.,12.0,0.,12.0,0.,12.0
1979-07-12 19:00:13.070 ,1,1,0.,12.0,0.,12.0,0.,12.0,0.,12.0
1979-07-12 19:00:25.070 ,0,0,0.,12.0,0.,12.0,0.,12.0,0.,12.0
1979-07-12 19:00:37.070 ,0,0,,0,,0,,0,,0
1979-07-12 19:00:32.270 ,0,0,,0,,0,,0,,0
1979-07-12 19:00:44.270 ,0,0,0.,12.0,0.,12.0,0.,12.0,0.,12.0
1979-07-12 19:00:49.070 ,2,1,0.,12.0,0.,12.0,0.,12.0,0.,12.0
1979-07-12 19:01:01.070 ,2,1,0.,12.0,0.,12.0,0.,12.0,0.,12.0
1979-07-12 19:01:13.070 ,2,0,0.,12.0,0.,12.0,0.,12.0,0.,12.0
1979-07-12 19:01:25.070 ,2,0,0.,12.0,0.,12.0,0.,12.0,0.,12.0
1979-07-12 19:01:37.070 ,3,1,0.,12.0,0.,12.0,0.,12.0,0.,12.0
1979-07-12 19:01:49.070 ,3,1,1.,12.0,0.,12.0,0.,12.0,0.,12.0
1979-07-12 19:02:01.070 ,3,0,0.,12.0,0.,12.0,0.,12.0,0.,12.0
1979-07-12 19:02:13.070 ,3,0,1.,12.0,0.,12.0,0.,12.0,0.,12.0
1979-07-12 19:02:25.070 ,4,1,0.,12.0,0.,12.0,0.,12.0,0.,12.0
1979-07-12 19:02:37.070 ,4,1,0.,12.0,0.,12.0,0.,12.0,0.,12.0
1979-07-12 19:02:49.070 ,4,0,2.,12.0,0.,12.0,0.,12.0,0.,12.0
1979-07-12 19:03:01.070 ,4,0,0.,12.0,0.,12.0,0.,12.0,0.,12.0
1979-07-12 19:03:13.070 ,5,1,3.,12.0,0.,12.0,0.,12.0,0.,12.0
1979-07-12 19:03:25.070 ,5,1,1.,12.0,0.,12.0,0.,12.0,0.,12.0
1979-07-12 19:03:37.070 ,5,0,3.,12.0,0.,12.0,0.,12.0,0.,12.0
1979-07-12 19:03:49.070 ,5,0,3.,12.0,0.,12.0,0.,12.0,0.,12.0
1979-07-12 19:04:01.070 ,6,1,0.,12.0,0.,12.0,0.,12.0,0.,12.0
1979-07-12 19:04:13.070 ,6,1,1.,12.0,0.,12.0,0.,12.0,1.,12.0
1979-07-12 19:04:25.070 ,6,0,1.,12.0,0.,12.0,0.,12.0,0.,12.0
1979-07-12 19:04:37.070 ,6,0,3.,12.0,0.,12.0,0.,12.0,0.,12.0
1979-07-12 19:04:49.070 ,7,1,2.,12.0,0.,12.0,0.,12.0,0.,12.0
1979-07-12 19:05:01.070 ,7,1,0.,12.0,0.,12.0,0.,12.0,1.,12.0
1979-07-12 19:05:13.070 ,7,0,0.,12.0,0.,12.0,0.,12.0,0.,12.0
1979-07-12 19:05:25.070 ,7,0,0.,12.0,0.,12.0,0.,12.0,0.,12.0
1979-07-12 19:05:37.070 ,7,1,0.,12.0,0.,12.0,0.,12.0,0.,12.0
1979-07-12 19:05:49.070 ,7,1,0.,12.0,0.,12.0,0.,12.0,0.,12.0
1979-07-12 19:06:01.070 ,7,0,0.,12.0,0.,12.0,0.,12.0,0.,12.0
1979-07-12 19:06:13.070 ,7,0,0.,12.0,0.,12.0,0.,12.0,0.,12.0
1979-07-12 19:06:25.070 ,6,1,0.,12.0,0.,12.0,0.,12.0,0.,12.0
1979-07-12 19:06:37.070 ,6,1,0.,12.0,0.,12.0,0.,12.0,0.,12.0
1979-07-12 19:06:49.070 ,6,0,0.,12.0,0.,12.0,0.,12.0,0.,12.0
1979-07-12 19:07:01.070 ,6,0,0.,12.0,0.,12.0,0.,12.0,0.,12.0
1979-07-12 19:07:13.070 ,5,1,1.,12.0,0.,12.0,0.,12.0,0.,12.0
1979-07-12 19:07:25.070 ,5,1,1.,12.0,0.,12.0,0.,12.0,0.,12.0
1979-07-12 19:07:37.070 ,5,0,3.,12.0,0.,12.0,0.,12.0,1.,12.0
1979-07-12 19:07:49.070 ,5,0,1.,12.0,0.,12.0,0.,12.0,0.,12.0
1979-07-12 19:10:25.070 ,0,0,1.,12.0,0.,12.0,0.,12.0,0.,12.0
1979-07-12 19:10:37.070 ,0,0,0.,12.0,0.,12.0,0.,12.0,1.,12.0
1979-07-12 19:10:49.070 ,0,0,0.,12.0,0.,12.0,0.,12.0,0.,12.0
1979-07-12 19:11:01.070 ,0,0,0.,12.0,0.,12.0,0.,12.0,0.,12.0
1979-07-12 19:11:13.070 ,0,1,1.,12.0,0.,12.0,0.,12.0,0.,12.0
1979-07-12 19:11:25.070 ,0,1,2.,12.0,0.,12.0,0.,12.0,0.,12.0
1979-07-12 19:11:37.070 ,0,0,0.,12.0,0.,12.0,0.,12.0,0.,12.0
1979-07-12 19:11:49.070 ,0,0,1.,12.0,0.,12.0,0.,12.0,1.,12.0
1979-07-12 19:12:01.070 ,0,1,0.,12.0,0.,12.0,0.,12.0,0.,12.0
1979-07-12 19:12:13.070 ,0,1,4.,12.0,0.,12.0,0.,12.0,0.,12.0
1979-07-12 19:12:25.070 ,0,0,0.,12.0,0.,12.0,0.,12.0,0.,12.0
1979-07-12 19:12:37.070 ,0,0,1.,12.0,0.,12.0,0.,12.0,0.,12.0
1979-07-12 19:12:49.070 ,1,1,1.,12.0,0.,12.0,0.,12.0,0.,12.0
1979-07-12 19:13:01.070 ,1,1,2.,12.0,0.,12.0,0.,12.0,0.,12.0
1979-07-12 19:13:13.070 ,1,0,2.,12.0,0.,12.0,0.,12.0,1.,12.0
1979-07-12 19:13:25.070 ,1,0,1.,12.0,0.,12.0,0.,12.0,0.,12.0
1979-07-12 19:13:37.070 ,2,1,1.,12.0,0.,12.0,0.,12.0,1.,12.0
1979-07-12 19:13:49.070 ,2,1,1.,12.0,0.,12.0,0.,12.0,0.,12.0
1979-07-12 19:14:01.070 ,2,0,1.,12.0,0.,12.0,0.,12.0,0.,12.0
1979-07-12 19:14:13.070 ,2,0,1.,12.0,0.,12.0,0.,12.0,0.,12.0
1979-07-12 19:14:25.070 ,3,1,1.,12.0,0.,12.0,0.,12.0,0.,12.0
1979-07-12 19:14:37.070 ,3,1,1.,12.0,0.,12.0,0.,12.0,0.,12.0
1979-07-12 19:14:49.070 ,3,0,1.,12.0,0.,12.0,0.,12.0,0.,12.0
1979-07-12 19:15:01.070 ,3,0,3.,12.0,0.,12.0,0.,12.0,0.,12.0
1979-07-12 19:15:13.070 ,4,1,2.,12.0,0.,12.0,0.,12.0,0.,12.0
1979-07-12 19:15:25.070 ,4,1,1.,12.0,0.,12.0,0.,12.0,0.,12.0
1979-07-12 19:15:37.070 ,4,0,3.,12.0,0.,12.0,0.,12.0,0.,12.0
1979-07-12 19:15:49.070 ,4,0,3.,12.0,0.,12.0,0.,12.0,0.,12.0
1979-07-12 19:16:01.070 ,5,1,4.,12.0,0.,12.0,0.,12.0,0.,12.0
1979-07-12 19:16:13.070 ,5,1,2.,12.0,0.,12.0,0.,12.0,0.,12.0
1979-07-12 19:16:25.070 ,5,0,3.,12.0,0.,12.0,0.,12.0,0.,12.0
1979-07-12 19:16:37.070 ,5,0,4.,12.0,0.,12.0,0.,12.0,0.,12.0
1979-07-12 19:16:49.070 ,6,1,1.,12.0,0.,12.0,0.,12.0,2.,12.0
1979-07-12 19:17:01.070 ,6,1,2.,12.0,0.,12.0,0.,12.0,0.,12.0
1979-07-12 19:17:13.070 ,6,0,2.,12.0,0.,12.0,0.,12.0,0.,12.0
1979-07-12 19:17:25.070 ,6,0,1.,12.0,0.,12.0,0.,12.0,0.,12.0
1979-07-12 19:17:37.070 ,7,1,7.,12.0,0.,12.0,0.,12.0,0.,12.0
1979-07-12 19:17:49.070 ,7,1,1.,12.0,0.,12.0,0.,12.0,0.,12.0
1979-07-12 19:18:01.070 ,7,0,0.,12.0,0.,12.0,0.,12.0,0.,12.0
1979-07-12 19:18:13.070 ,7,0,0.,12.0,0.,12.0,0.,12.0,0.,12.0
1979-07-12 19:18:25.070 ,7,1,0.,12.0,0.,12.0,0.,12.0,0.,12.0
1979-07-12 19:18:37.070 ,7,1,0.,12.0,0.,12.0,0.,12.0,0.,12.0
1979-07-12 19:18:49.070 ,7,0,0.,12.0,0.,12.0,0.,12.0,0.,12.0
1979-07-12 19:19:01.070 ,7,0,0.,12.0,0.,12.0,0.,12.0,0.,12.0
1979-07-12 19:19:13.070 ,6,1,0.,12.0,0.,12.0,0.,12.0,0.,12.0
1979-07-12 19:19:25.070 ,6,1,0.,12.0,0.,12.0,0.,12.0,0.,12.0
1979-07-12 19:19:37.070 ,6,0,2.,12.0,0.,12.0,0.,12.0,0.,12.0
1979-07-12 19:19:49.070 ,6,0,3.,12.0,0.,12.0,0.,12.0,0.,12.0
1979-07-12 19:20:01.070 ,5,1,1.,12.0,0.,12.0,0.,12.0,0.,12.0
1979-07-12 19:20:13.070 ,5,1,4.,12.0,0.,12.0,0.,12.0,0.,12.0
1979-07-12 19:20:25.070 ,5,0,3.,12.0,0.,12.0,0.,12.0,0.,12.0
1979-07-12 19:20:37.070 ,5,0,0.,12.0,0.,12.0,0.,12.0,0.,12.0
1979-07-12 19:20:49.070 ,4,1,3.,12.0,0.,12.0,0.,12.0,0.,12.0
1979-07-12 19:21:01.070 ,4,1,4.,12.0,0.,12.0,0.,12.0,0.,12.0
1979-07-12 19:21:13.070 ,4,0,1.,12.0,0.,12.0,0.,12.0,0.,12.0